Location: Falniów
(50.3639°N, 19.9642°E)
Time: 13:25:51
(UTC+00:00)

Cosmos 2082 Rocket - Pass Details

Date: 18 April 2026
Orbit: 831 x 853 km, 71.0° (Epoch: 19 May)

Event Time Altitude Azimuth Distance (km) Brightness Sun altitude
Exits shadow 01:58:24 19° 258° (WSW) 1,913 3.5 -15.1°
Maximum altitude 02:01:49 36° 312° (NW) 1,338 3.2 -14.7°
Drops below altitude 10° 02:07:04 10° 19° (NNE) 2,494 5.5 -14.1°
Sets 02:09:45 0° 28° (NNE) 3,433 6.6 -13.7°
